Regional Weather Roundup
Issued by NWS Goodland, KS

Home | Current Version | Previous Version | Text Only | Print | Product List | Glossary Off
Versions: 1 2 3 4 5 6 7 8 9 10 11 12 13 14 15 16 17 18 19 20 21 22 23 24 25 26 27 28 29 30 31 32 33 34 35 36 37 38 39 40 41 42 43 44 45 46 47 48 49 50

000
ASUS43 KGLD 220708
RWRGLD

GOODLAND FORECAST AREA HOURLY WEATHER ROUNDUP
NATIONAL WEATHER SERVICE GOODLAND KS
100 AM MDT MON SEP 22 2014

...OFFICIAL OBSERVATIONS...

CITY           SKY/WX    TMP DP  RH WIND       PRES   REMARKS
GOODLAND KS    CLOUDY    60  41  49 SE7       30.32S
HILL CITY KS   MOCLDY    54  43  66 E3        30.30F
IMPERIAL NEB   CLOUDY    59  41  51 S9        30.30S
MCCOOK NEB     MOCLDY    56  44  64 E5        30.30F
AKRON CO       CLOUDY    60  40  47 S17       30.31F
BURLINGTON CO  MOCLDY    56  40  55 S9        30.33S
LIMON CO       PTCLDY    51  39  63 S8        30.36S
$$

...UNOFFICIAL OBSERVATIONS...

CITY           SKY/WX    TMP DP  RH WIND       PRES   REMARKS
COLBY KS       CLOUDY    61  45  55 SE9       30.32R
GOVE KS          N/A     53  32  45 MISG        N/A
NORTON KS      MOCLDY    52  39  62 CALM      30.31S
SHARON SPRINGS   N/A     54  43  67 S7          N/A
TRIBUNE KS     CLEAR     55  46  71 SE8       30.34S
WAKEENEY KS      N/A     60  37  42 MISG        N/A
TRENTON NEB      N/A     59  32  36 SE8         N/A
KIT CARSON CO    N/A     56  39  53 CALM        N/A
YUMA CO          N/A     61  42  49 SE6G14      N/A
$$


USA.gov is the U.S. government's official web portal to all federal, state and local government web resources and services.